Friday Harbor, WA

1:59 AM PDT on May 28, 2017 (GMT -0700)
Friday Harbor

Weather History for KFHR - August, 2013

Change the Weather History Date:

Sunday, August 18, 2013

  Actual Average Record
Temperature  
Mean Temperature 61 °F -  
Max Temperature 72 °F 69 °F 87 °F (2016)
Min Temperature 51 °F 48 °F 44 °F (2006)
Degree Days  
Heating Degree Days 4    
Growing Degree Days 11 (Base 50)    
Moisture  
Dew Point 53 °F    
Average Humidity 81    
Maximum Humidity 97    
Minimum Humidity 59    
Precipitation  
Precipitation 0.00 in - - ()
Sea Level Pressure  
Sea Level Pressure 30.11 in    
Wind  
Wind Speed 2 mph (SE)    
Max Wind Speed 8 mph    
Max Gust Speed -    
Visibility 10 miles    
Events      
Averages and records for this station are not official NWS values.
T = Trace of Precipitation, MM = Missing Value Source: NWS Daily Summary

Daily Weather History Graph

Daily Weather History Graph

Search for Another Location

Airport or City:

Trip Planner

Search our weather history database for the weather conditions in past years. The results will help you decide how hot, cold, wet, or windy it might be!

Date:

Astronomy

Aug. 18, 2013 Rise Set
Actual Time 6:10 AM PDT 8:20 PM PDT
Civil Twilight 5:36 AM PDT 8:54 PM PDT
Nautical Twilight 4:53 AM PDT 9:36 PM PDT
Astronomical Twilight 4:05 AM PDT 10:24 PM PDT
Moon 6:34 PM PDT (8/18) 3:19 AM PDT (8/18)
Length of Visible Light 15h 18m
Length of Day
14h 10m
Waxing Gibbous, 93% of the Moon is Illuminated
Aug 18
Waxing Gibbous
Aug 20
Full
Aug 28
Last Quarter
Sep 5
New
Sep 12
First Quarter

Hourly Weather History & Observations

Time (PDT) Temp. Dew Point Humidity Pressure Visibility Wind Dir Wind Speed Gust Speed Precip Events Conditions
12:53 AM 54.0 °F 52.0 °F 93% 30.08 in 10.0 mi Calm Calm - N/A   Overcast
1:53 AM 53.1 °F 51.1 °F 93% 30.08 in 10.0 mi Calm Calm - N/A   Overcast
2:53 AM 53.1 °F 51.1 °F 93% 30.08 in 10.0 mi Calm Calm - N/A   Mostly Cloudy
3:53 AM 55.0 °F 53.1 °F 93% 30.08 in 10.0 mi Calm Calm - N/A   Overcast
4:53 AM 54.0 °F 52.0 °F 93% 30.09 in 10.0 mi Calm Calm - N/A   Overcast
5:53 AM 53.1 °F 52.0 °F 96% 30.10 in 9.0 mi SE 4.6 mph - N/A   Mostly Cloudy
6:53 AM 54.0 °F 53.1 °F 97% 30.10 in 8.0 mi Calm Calm - N/A   Scattered Clouds
7:53 AM 59.0 °F 55.9 °F 90% 30.11 in 10.0 mi East 6.9 mph - N/A   Overcast
8:53 AM 57.9 °F 54.0 °F 87% 30.12 in 10.0 mi Calm Calm - N/A   Overcast
9:53 AM 64.0 °F 55.9 °F 75% 30.12 in 10.0 mi ESE 4.6 mph - N/A   Overcast
10:53 AM 68.0 °F 55.9 °F 65% 30.12 in 10.0 mi SSE 6.9 mph - N/A   Scattered Clouds
11:53 AM 68.0 °F 57.0 °F 68% 30.13 in 10.0 mi SE 8.1 mph - N/A   Overcast
12:53 PM 62.1 °F 55.9 °F 80% 30.14 in 10.0 mi SW 8.1 mph - N/A   Overcast
1:53 PM 66.9 °F 55.9 °F 68% 30.14 in 10.0 mi Variable 5.8 mph - N/A   Overcast
2:53 PM 68.0 °F 55.9 °F 65% 30.14 in 10.0 mi Variable 4.6 mph - N/A   Overcast
3:53 PM 70.0 °F 55.0 °F 59% 30.12 in 10.0 mi South 6.9 mph - N/A   Mostly Cloudy
4:53 PM 64.0 °F 54.0 °F 70% 30.12 in 10.0 mi East 5.8 mph - N/A   Mostly Cloudy
5:53 PM 61.0 °F 52.0 °F 72% 30.10 in 10.0 mi NE 3.5 mph - N/A   Mostly Cloudy
6:53 PM 63.0 °F 52.0 °F 67% 30.09 in 10.0 mi Calm Calm - N/A   Overcast
7:53 PM 59.0 °F 52.0 °F 78% 30.09 in 10.0 mi Calm Calm - N/A   Mostly Cloudy
8:53 PM 55.9 °F 50.0 °F 80% 30.09 in 10.0 mi Calm Calm - N/A   Clear
9:53 PM 53.1 °F 48.9 °F 86% 30.10 in 10.0 mi Calm Calm - N/A   Clear
10:53 PM 52.0 °F 48.9 °F 89% 30.10 in 10.0 mi Calm Calm - N/A   Clear
11:53 PM 51.1 °F 48.9 °F 92% 30.09 in 10.0 mi Calm Calm - N/A   Partly Cloudy